Location: Hilton Head Island
(32.2163°N, 80.7526°W)
Time: 14:28:48
(UTC-04:00)

Explorer 11/Cluster Stage 4 - Pass Details

Date: 23 February 2026
Orbit: 463 x 1176 km, 28.8° (Epoch: 8 March)

Event Time Altitude Azimuth Distance (km) Brightness Sun altitude
Rises 14:39:41 0° 270° (W) 2,898 10.0 38.9°
Reaches altitude 10° 14:42:21 10° 260° (W) 1,880 9.3 38.5°
Maximum altitude 14:46:10 32° 197° (SSW) 903 8.5 37.9°
Drops below altitude 10° 14:49:33 10° 132° (SE) 1,654 8.4 37.5°
Sets 14:51:46 0° 122° (ESE) 2,492 9.1 37.1°
